Hourly Data Report for October 07, 2013

All times are specified in Local Standard Time (LST). Add 1 hour to adjust for Daylight Saving Time where and when it is observed.

CAPE DORSET A
NUNAVUT

64°13'49.000" N
76°31'30.000" W
48.20 m
2400637
71366
YTE

Download Data

Hourly Data (October 2013)
Hourly Data Report for October 7, 2013
Temp Definition
°C
Dew Point Temp Definition
°C
Rel Hum Definition
%
Wind Dir Definition
10's deg

Wind Spd Definition
km/h
Visibility Definition
km
Stn Press Definition
kPa
Hmdx Definition


Wind Chill Definition


Weather Definition


TIME
00:00 Legend Double Dagger -1.7 -4.9 79 9 35 16.1 101.09   -9 LegendNANA
01:00 Legend Double Dagger -1.4 -4.7 78 9 37 16.1 100.98   -9 LegendNANA
02:00 Legend Double Dagger -1.2 -4.0 81 8 35 16.1 100.91   -9 LegendNANA
03:00 Legend Double Dagger -1.2 -4.4 79 10 42 16.1 100.85   -9 LegendNANA
04:00 Legend Double Dagger -1.2 -4.6 78 10 41 16.1 100.79   -9 LegendNANA
05:00 Legend Double Dagger -1.2 -4.5 79 10 39 16.1 100.73   -9 LegendNANA
06:00 Legend Double Dagger -1.5 -4.2 82 10 42 16.1 100.71   -10 LegendNANA
07:00 Legend Double Dagger -1.3 -4.7 78 10 37 16.1 100.65   -9 LegendNANA
08:00 Legend Double Dagger -1.2 -3.6 84 10 35 16.1 100.59   -9 LegendNANA
09:00 Legend Double Dagger -1.0 -3.7 82 10 37 16.1 100.54   -8 LegendNANA
10:00 Legend Double Dagger -1.0 -2.6 89 9 35 16.1 100.46   -8 LegendNANA
11:00 Legend Double Dagger -1.0 -2.7 88 8 45 16.1 100.34   -9 LegendNANA
12:00 Legend Double Dagger -0.8 -2.1 91 9 39 9.7 100.28   -8 LegendNANA
13:00 Legend Double Dagger -0.7 -2.0 91 8 42 16.1 100.23   -8 LegendNANA
14:00 Legend Double Dagger -0.6 -1.2 96 7 35 8.1 100.15   -8 LegendNANA
15:00 Legend Double Dagger -0.3 -0.9 96 7 37 4.0 100.06   -8 LegendNANA
16:00 Legend Double Dagger -0.1 -0.7 96 8 35 8.1 100.01   -7 LegendNANA
17:00 Legend Double Dagger -0.2 -1.1 94 7 28 11.3 99.93   -7 LegendNANA
18:00 Legend Double Dagger -0.3 -1.0 95 6 32 6.4 99.81   -7 LegendNANA
19:00 Legend Double Dagger -0.3 -1.5 92 7 37 8.1 99.71   -8 LegendNANA
20:00 Legend Double Dagger -0.7 -1.7 93 7 41 3.6 99.61   -8 LegendNANA
21:00 Legend Double Dagger -1.0 -1.8 94 6 33 4.0 99.54   -8 LegendNANA
22:00 Legend Double Dagger -1.2 -1.9 95 5 39 2.4 99.42   -9 LegendNANA
23:00 Legend Double Dagger -1.2 -1.8 96 5 39 2.0 99.28   -9 LegendNANA

Notes on Data Quality.

Legend

  • E = Estimated
  • M = Missing
  • NA = Not Available
  • ‡ = Partner data that is not subject to review by the National Climate Archives
Date modified: